Regional Weather Roundup
Issued by NWS

Home | Current Version | Previous Version | Text Only | Print | Product List | Glossary On
Versions: 1 2 3 4 5 6 7 8 9 10 11 12 13 14 15 16 17 18 19 20 21 22 23 24 25 26 27 28 29 30 31 32 33 34 35 36 37 38 39 40 41 42 43 44 45 46 47 48 49 50
000
ASUS43 KIND 051009
RWRIN

WEATHER ROUNDUP FOR INDIANA
NATIONAL WEATHER SERVICE INDIANAPOLIS IN
600 AM EDT THU AUG 05 2021

NOTE: "FAIR" INDICATES FEW OR NO CLOUDS BELOW 12,000 FEET WITH NO
SIGNIFICANT WEATHER AND/OR OBSTRUCTIONS TO VISIBILITY.

* - STATION DOES NOT REPORT WEATHER SUCH AS PRECIPITATION OR FOG.

+ - STATION NOT QUALITY CONTROLLED BY THE NATIONAL WEATHER SERVICE.
    USE DATA WITH CAUTION...ESPECIALLY DEWPOINT AND RELATIVE
    HUMIDITY OBSERVATIONS.

INZ001>003-010>013-019-020-051100-
NORTHWEST INDIANA

CITY           SKY/WX    TMP DP  RH WIND       PRES   REMARKS
GARY /AIRPORT/ CLEAR     61  59  94 SW5       30.12R
KNOX *+        CLEAR     55  55 100 CALM      30.12S
LA PORTE +     CLEAR     55  54  96 CALM      30.13S
MICHIGAN CITY+ CLEAR     55  54  94 CALM      30.12S FOG
MONTICELLO +   CLEAR     54  53  95 CALM      30.12F
RENSSELAER +   CLEAR     55  55 100 CALM      30.13R
VALPARAISO     CLEAR     58  58 100 CALM      30.13R FOG

$$

LMZ046-743>745-051100-
SOUTHERN LAKE MICHIGAN

STATION/POSITION TIME  TEMP    WIND        PRES    WAVE
                       AIR SEA DIR/SP/G            HT
                 (UTC) (F)     (DEG/KT/KT) (MB)    (FT)
BURNS HARBOR     0930   69     210/  3/  5 1020.0R
MICHIGAN CITY    0930   68     200/  6/  7 1019.3R
5NW MICH CITY    1000   72     230/  8/ 10   N/A     1

$$

INZ004-005-014>016-021>024-051100-
NORTH CENTRAL INDIANA

CITY           SKY/WX    TMP DP  RH WIND       PRES   REMARKS
GOSHEN         CLEAR     59  57  93 CALM      30.13R
LOGANSPORT +   CLEAR     54  54 100 N3        30.14S
PERU/GRISSOM   CLEAR     57  52  84 CALM      30.12S
PLYMOUTH *+    CLOUDY    59  57  94 CALM      30.13R
ROCHESTER +    CLEAR     59  57  94 CALM      30.13S
SOUTH BEND     CLEAR     59  55  87 CALM      30.13R
WARSAW +       CLOUDY    61  59  94 CALM      30.13S

$$

INZ006>009-017-018-025>027-051100-
NORTHEAST INDIANA

CITY           SKY/WX    TMP DP  RH WIND       PRES   REMARKS
ANGOLA *+      FOG       59  59 100 CALM      30.12S VSB 1/2
AUBURN +       CLEAR     59  59 100 CALM      30.13S
FORT WAYNE     PTCLDY    57  54  89 CALM      30.14R
HUNTINGTON +   CLEAR     56  55  95 CALM      30.14R
KENDALLVILLE + FAIR      59  59 100 CALM      30.13S

$$

INZ028-029-035-036-043>045-051>053-051100-
WEST CENTRAL INDIANA

CITY           SKY/WX    TMP DP  RH WIND       PRES   REMARKS
CRAWFORDSVL +  CLEAR     51  49  95 CALM      30.13R
GREENCASTLE +  MOCLDY    57  56  96 CALM      30.12S
LAFAYETTE      CLEAR     55  54  96 CALM      30.12S
TERRE HAUTE    MOCLDY    59  58  96 CALM      30.11S

$$

INZ030>032-037>040-046>048-054>057-064-065-051100-
CENTRAL INDIANA

CITY           SKY/WX    TMP DP  RH WIND       PRES   REMARKS
ANDERSON +     MOCLDY    56  52  85 CALM      30.14R
FRANKFORT +    CLOUDY    54  52  94 CALM      30.12S
GREENWOOD *+   CLEAR     55  54  97 CALM      30.13S
INDIANAPOLIS   PTCLDY    63  55  75 NE8       30.12R
-EAGLE CREEK   PTCLDY    62  55  77 CALM      30.12R
KOKOMO +       CLEAR     54  32  43 CALM      30.14R
MARION +       PTCLDY    53  53 100 CALM      30.14S
MT COMFORT *+  MOCLDY    54  54 100 CALM      30.13S
SHELBYVILLE    CLEAR     59  55  87 CALM      30.11S

$$

INZ033-034-041-042-049-050-058-059-051100-
EAST CENTRAL INDIANA

CITY           SKY/WX    TMP DP  RH WIND       PRES   REMARKS
MUNCIE         CLEAR     57  52  83 CALM      30.13S
PORTLAND +     FAIR      55  52  88 CALM      30.14R
RICHMOND +     CLOUDY    61  59  94 E6        30.14R

$$

INZ060-061-067>069-081>083-085>088-051100-
SOUTHWEST INDIANA

CITY           SKY/WX    TMP DP  RH WIND       PRES   REMARKS
EVANSVILLE     CLEAR     58  57  97 CALM      30.11R
HUNTINGBURG +  MOCLDY    58  58 100 CALM      30.11R
WASHINGTON +   MOCLDY   N/A N/A N/A CALM      30.11R

$$

INZ062-063-066-070>080-084-089>092-051100-
SOUTH CENTRAL AND SOUTHEAST INDIANA

CITY           SKY/WX    TMP DP  RH WIND       PRES   REMARKS
BATESVILLE +   CLOUDY    61  61 100 CALM      30.12S
BLOOMINGTON    PTCLDY    57  56  96 CALM      30.11S
JEFFERSONVL +  FAIR      61  59  94 CALM      30.10R FOG
MADISON *+     CLEAR     59  59 100 CALM      30.13S

$$




USA.gov is the U.S. government's official web portal to all federal, state and local government web resources and services.